Simultaneous Nadir Overpasses (SNOs) Predictions

Prediction of SNOs between NOAA-20 and PACE Satellite Orbit:

Table of predicted SNOs for the next 14.0 days since TLE Epoch: 12/7/2024
Index Date (NOAA-20) Time (NOAA-20) Lat,Lon (NOAA-20) SZA (NOAA-20 ) Date (PACE) Time (PACE) Lat,Lon (PACE) SZA (PACE ) Distance(km) Time Diff (sec)
1 12/07/2024 06:08:38 79.86, 50.14 104.26 12/07/2024 06:09:27 79.85, 50.20 104.23 1.25 49
2 12/07/2024 06:59:14 -79.59,-140.11 76.20 12/07/2024 06:58:28 -79.59,-140.21 76.17 2.18 46
3 12/09/2024 09:44:15 -79.88, 176.05 75.47 12/09/2024 09:45:18 -79.88, 176.04 75.49 0.38 63
4 12/09/2024 10:34:53 79.66, -14.63 104.16 12/09/2024 10:34:21 79.66, -14.62 104.17 0.12 32
5 12/11/2024 13:21:59 81.03,-104.41 111.56 12/11/2024 13:23:11 81.83,-105.27 111.80 89.99 72
6 12/11/20
